Home   Weather   Ocala   Past weeks
Flag for USA

Past Weather in Ocala, Florida, USA — Yesterday and Last 2 Weeks

Now
73 °F

Sunny.


Feels Like: 75 °F
Forecast: 87 / 60 °F
Wind: 7 mph from South

Location: Ocala Municipal

Current Time: Apr 25, 2019 at 10:46:48 am

Latest Report: Apr 25, 2019 at 9:51 am


Visibility: 10 mi

Pressure: 30.04 "Hg

Humidity: 69%

Dew Point: 62 °F

Location of OcalaLocation

Past Weather in Ocala — Graph

°F

Ocala Temperature Yesterday

Maximum temperature yesterday: 85 °F (at 2:51 pm)
Minimum temperature yesterday: 55 °F (at 6:51 am)
Average temperature yesterday: 71 °F

High & Low Weather Summary for the Past Weeks

 TemperatureHumidityPressure
High89 °F (Apr 14, 3:51 pm)100% (Apr 11, 3:51 am)30.24 "Hg (Apr 11, 3:51 am)
Low47 °F (Apr 16, 3:51 am)24% (Apr 22, 2:51 pm)29.70 "Hg (Apr 19, 4:51 pm)
Average70 °F70%30.00 "Hg
* Reported Apr 10 8:51 am — Apr 25 8:56 am, Ocala. Weather by CustomWeather, © 2019

Note: Actual official high and low records may vary slightly from our data, if they occured in-between our weather recording intervals... More about our weather records

Advertising

Ocala Weather History for the Previous 24 Hours

Scroll right to see more
 ConditionsComfort  
Time TempWeatherWind HumidityBarometerVisibility
8:56 am
Thu, Apr 25
68 °FSunny.6 mph83%30.02 "Hg10 mi
7:51 am62 °FSunny.No wind93%30.03 "Hg10 mi
6:51 am60 °FClear.No wind96%30.01 "Hg10 mi
5:51 am61 °FClear.No wind97%29.98 "Hg10 mi
4:51 am60 °FClear.No wind96%29.98 "Hg9 mi
3:51 am62 °FClear.No wind93%29.98 "Hg10 mi
2:51 am62 °FClear.No wind93%29.98 "Hg10 mi
1:51 am63 °FClear.5 mph93%30.01 "Hg10 mi
12:51 am65 °FClear.No wind87%30.02 "Hg10 mi
11:51 pm
Wed, Apr 24
67 °FClear.No wind85%30.03 "Hg10 mi
10:51 pm68 °FClear.No wind82%30.02 "Hg10 mi
8:51 pm75 °FClear.5 mph64%30.01 "Hg10 mi
7:51 pm79 °FSunny.6 mph58%30.00 "Hg10 mi
6:51 pm83 °FSunny.3 mph43%29.99 "Hg10 mi
5:51 pm85 °FSunny.6 mph40%30.00 "Hg10 mi
4:51 pm84 °FSunny.3 mph40%30.00 "Hg10 mi
3:51 pm85 °FSunny.8 mph37%30.01 "Hg10 mi
2:51 pm85 °FSunny.7 mph42%30.03 "Hg9 mi
1:51 pm82 °FSunny.6 mph44%30.05 "Hg10 mi
12:51 pm81 °FSunny.5 mph47%30.07 "Hg10 mi
11:51 am78 °FSunny.5 mph54%30.10 "Hg10 mi
10:51 am76 °FSunny.7 mph60%30.11 "Hg10 mi
Weather by CustomWeather, © 2019

See weather overview